| time (UTC) | temp F | wind direction | speed MPH | gust MPH | rain 1hr in | rain 24hr in | rain mn in | humidity % | barometer mb |
| 20260507081503 | 45 | 346 | 0.0 | 0.0 | 0.00 | 0.64 | 0.12 | 98 | 1004.6 |
| 20260507081004 | 45 | 346 | 0.0 | 0.0 | 0.00 | 0.64 | 0.12 | 98 | 1004.7 |
| 20260507080504 | 45 | 349 | 0.0 | 0.0 | 0.00 | 0.64 | 0.12 | 98 | 1004.7 |
| 20260507080004 | 45 | 350 | 0.0 | 0.0 | 0.00 | 0.64 | 0.12 | 98 | 1004.7 |
| 20260507075504 | 45 | 353 | 0.0 | 0.0 | 0.00 | 0.64 | 0.12 | 98 | 1004.6 |
| 20260507075004 | 45 | 353 | 0.0 | 0.0 | 0.00 | 0.64 | 0.12 | 98 | 1004.8 |
| 20260507074004 | 45 | 355 | 0.0 | 0.0 | 0.00 | 0.64 | 0.12 | 98 | 1004.8 |
| 20260507073004 | 46 | 353 | 0.0 | 0.0 | 0.00 | 0.64 | 0.12 | 98 | 1004.5 |
| 20260507072504 | 46 | 355 | 0.0 | 0.0 | 0.00 | 0.64 | 0.12 | 98 | 1004.4 |
| 20260507072004 | 46 | 355 | 0.0 | 0.0 | 0.00 | 0.64 | 0.12 | 98 | 1004.4 |
| 20260507070504 | 46 | 355 | 0.0 | 0.0 | 0.00 | 0.64 | 0.12 | 98 | 1004.4 |
| 20260507070008 | 46 | 355 | 0.0 | 0.0 | 0.00 | 0.64 | 0.12 | 98 | 1004.2 |
| 20260507065004 | 46 | 355 | 0.0 | 0.0 | 0.00 | 0.64 | 0.12 | 98 | 1003.9 |
| 20260507064504 | 46 | 355 | 0.0 | 0.0 | 0.00 | 0.64 | 0.12 | 98 | 1003.8 |
| 20260507063504 | 47 | 355 | 0.0 | 0.0 | 0.00 | 0.64 | 0.12 | 98 | 1004.0 |
| 20260507063004 | 46 | 355 | 0.0 | 0.0 | 0.00 | 0.64 | 0.12 | 98 | 1004.0 |
| 20260507062504 | 46 | 355 | 0.0 | 0.0 | 0.00 | 0.64 | 0.12 | 98 | 1004.0 |
| 20260507062005 | 46 | 355 | 0.0 | 0.0 | 0.01 | 0.64 | 0.12 | 98 | 1004.0 |
| 20260507061503 | 46 | 355 | 0.0 | 0.0 | 0.02 | 0.64 | 0.12 | 98 | 1004.0 |
| 20260507061004 | 47 | 355 | 0.0 | 0.0 | 0.03 | 0.64 | 0.12 | 98 | 1004.0 |
| 20260507060504 | 47 | 355 | 0.0 | 0.0 | 0.03 | 0.64 | 0.12 | 98 | 1003.7 |
| 20260507060004 | 47 | 355 | 0.0 | 0.0 | 0.04 | 0.64 | 0.12 | 98 | 1003.5 |
| 20260507055504 | 47 | 355 | 0.0 | 0.0 | 0.06 | 0.64 | 0.12 | 98 | 1003.7 |
| 20260507055004 | 47 | 355 | 0.0 | 0.0 | 0.07 | 0.64 | 0.12 | 98 | 1003.6 |
| 20260507054505 | 47 | 355 | 0.0 | 0.0 | 0.07 | 0.64 | 0.12 | 98 | 1003.5 |
| 20260507054004 | 47 | 355 | 0.0 | 0.0 | 0.08 | 0.64 | 0.12 | 98 | 1003.9 |
| 20260507053504 | 48 | 355 | 0.0 | 0.0 | 0.09 | 0.64 | 0.12 | 98 | 1003.9 |
| 20260507053004 | 48 | 355 | 0.0 | 0.0 | 0.09 | 0.64 | 0.12 | 98 | 1003.8 |
| 20260507052504 | 48 | 355 | 0.0 | 0.0 | 0.09 | 0.64 | 0.12 | 98 | 1003.7 |
| 20260507052004 | 48 | 355 | 0.0 | 0.0 | 0.08 | 0.63 | 0.11 | 98 | 1004.1 |
| 20260507051504 | 48 | 355 | 0.0 | 0.0 | 0.08 | 0.62 | 0.10 | 98 | 1004.1 |
| 20260507051004 | 48 | 355 | 0.0 | 0.0 | 0.07 | 0.61 | 0.09 | 98 | 1003.8 |
| 20260507050505 | 49 | 355 | 0.0 | 0.0 | 0.07 | 0.61 | 0.09 | 98 | 1003.6 |
| 20260507050004 | 49 | 355 | 0.0 | 0.0 | 0.08 | 0.60 | 0.08 | 98 | 1003.8 |
| 20260507045504 | 49 | 355 | 0.0 | 0.0 | 0.08 | 0.58 | 0.06 | 98 | 1004.1 |
| 20260507045004 | 49 | 355 | 0.0 | 0.0 | 0.08 | 0.57 | 0.05 | 98 | 1004.1 |
| 20260507044504 | 49 | 355 | 0.0 | 0.0 | 0.09 | 0.57 | 0.05 | 98 | 1004.2 |
| 20260507044004 | 49 | 355 | 0.0 | 0.0 | 0.10 | 0.56 | 0.04 | 98 | 1004.1 |
| 20260507043504 | 49 | 355 | 0.0 | 0.0 | 0.10 | 0.55 | 0.03 | 98 | 1003.9 |
| 20260507042504 | 50 | 351 | 0.0 | 0.0 | 0.14 | 0.55 | 0.03 | 98 | 1003.8 |
| 20260507042004 | 50 | 351 | 0.0 | 0.0 | 0.14 | 0.55 | 0.03 | 98 | 1003.9 |
| 20260507041503 | 50 | 351 | 0.0 | 0.0 | 0.14 | 0.54 | 0.02 | 98 | 1004.0 |
| 20260507041003 | 50 | 351 | 0.0 | 0.0 | 0.14 | 0.54 | 0.02 | 98 | 1004.0 |
| 20260507040502 | 51 | 351 | 0.0 | 0.0 | 0.14 | 0.54 | 0.02 | 98 | 1003.9 |
| 20260507040002 | 51 | 351 | 0.0 | 0.0 | 0.13 | 0.52 | 0.00 | 98 | 1003.9 |
| 20260507035502 | 51 | 351 | 0.0 | 0.0 | 0.12 | 0.51 | 0.51 | 98 | 1004.0 |
| 20260507035003 | 51 | 351 | 0.0 | 0.0 | 0.10 | 0.49 | 0.49 | 99 | 1003.8 |
| 20260507034503 | 51 | 351 | 0.0 | 0.0 | 0.10 | 0.48 | 0.48 | 99 | 1003.7 |
| 20260507034002 | 51 | 351 | 0.0 | 0.0 | 0.09 | 0.47 | 0.47 | 99 | 1003.4 |
| 20260507033503 | 51 | 350 | 0.0 | 0.0 | 0.07 | 0.45 | 0.45 | 98 | 1003.5 |
| 20260507033003 | 51 | 351 | 0.0 | 0.0 | 0.05 | 0.42 | 0.42 | 98 | 1003.6 |
| 20260507032502 | 51 | 351 | 0.0 | 0.0 | 0.05 | 0.42 | 0.42 | 98 | 1003.5 |
| 20260507032003 | 51 | 355 | 0.0 | 0.0 | 0.04 | 0.41 | 0.41 | 99 | 1003.2 |
| 20260507031503 | 51 | 355 | 0.0 | 5.0 | 0.04 | 0.40 | 0.40 | 99 | 1003.2 |
| 20260507031002 | 52 | 350 | 0.0 | 0.0 | 0.04 | 0.40 | 0.40 | 98 | 1003.2 |
| 20260507030503 | 52 | 350 | 0.0 | 0.0 | 0.04 | 0.40 | 0.40 | 99 | 1003.0 |
| 20260507030002 | 52 | 350 | 1.0 | 3.0 | 0.03 | 0.39 | 0.39 | 98 | 1002.9 |
| 20260507025503 | 53 | 350 | 2.0 | 6.0 | 0.03 | 0.39 | 0.39 | 99 | 1002.9 |
| 20260507025003 | 53 | 344 | 2.0 | 8.0 | 0.03 | 0.39 | 0.39 | 99 | 1002.9 |
| 20260507024502 | 54 | 273 | 0.0 | 0.0 | 0.02 | 0.38 | 0.38 | 99 | 1002.8 |
| 20260507024002 | 54 | 236 | 0.0 | 0.0 | 0.03 | 0.38 | 0.38 | 99 | 1002.8 |
| 20260507023503 | 54 | 225 | 0.0 | 0.0 | 0.03 | 0.38 | 0.38 | 99 | 1002.8 |
| 20260507023002 | 54 | 225 | 0.0 | 0.0 | 0.02 | 0.37 | 0.37 | 99 | 1002.8 |
| 20260507022503 | 54 | 225 | 0.0 | 0.0 | 0.02 | 0.37 | 0.37 | 99 | 1002.7 |
| 20260507022003 | 54 | 225 | 0.0 | 0.0 | 0.02 | 0.37 | 0.37 | 99 | 1002.7 |
| 20260507021502 | 54 | 225 | 0.0 | 0.0 | 0.01 | 0.36 | 0.36 | 99 | 1002.7 |
| 20260507021002 | 54 | 225 | 0.0 | 0.0 | 0.01 | 0.36 | 0.36 | 99 | 1002.7 |
| 20260507020503 | 54 | 225 | 0.0 | 0.0 | 0.01 | 0.36 | 0.36 | 99 | 1002.7 |
| 20260507020002 | 54 | 225 | 0.0 | 0.0 | 0.01 | 0.36 | 0.36 | 99 | 1002.7 |
| 20260507015003 | 54 | 225 | 0.0 | 0.0 | 0.01 | 0.36 | 0.36 | 99 | 1002.8 |
| 20260507014503 | 54 | 225 | 0.0 | 0.0 | 0.01 | 0.36 | 0.36 | 99 | 1002.8 |
| 20260507014002 | 54 | 225 | 0.0 | 0.0 | 0.00 | 0.35 | 0.35 | 99 | 1002.9 |
| 20260507013503 | 54 | 225 | 0.0 | 0.0 | 0.00 | 0.35 | 0.35 | 99 | 1003.0 |
| 20260507013003 | 54 | 225 | 0.0 | 0.0 | 0.00 | 0.35 | 0.35 | 99 | 1003.0 |
| 20260507012502 | 54 | 225 | 2.0 | 8.0 | 0.00 | 0.35 | 0.35 | 99 | 1002.9 |
| 20260507012003 | 54 | 202 | 2.0 | 10.0 | 0.00 | 0.35 | 0.35 | 99 | 1002.7 |
| 20260507011503 | 54 | 181 | 5.0 | 12.0 | 0.00 | 0.35 | 0.35 | 99 | 1002.7 |
| 20260507011003 | 54 | 202 | 5.0 | 9.0 | 0.00 | 0.35 | 0.35 | 99 | 1002.7 |
| 20260507010002 | 54 | 187 | 6.0 | 18.0 | 0.01 | 0.35 | 0.35 | 99 | 1002.8 |
| 20260507005503 | 54 | 177 | 4.0 | 14.0 | 0.01 | 0.35 | 0.35 | 99 | 1002.9 |
| 20260507005002 | 54 | 226 | 3.0 | 13.0 | 0.01 | 0.35 | 0.35 | 99 | 1002.9 |
| 20260507004003 | 54 | 208 | 5.0 | 12.0 | 0.01 | 0.35 | 0.35 | 99 | 1003.0 |
| 20260507003503 | 54 | 216 | 5.0 | 12.0 | 0.01 | 0.35 | 0.35 | 99 | 1002.9 |
| 20260507003003 | 54 | 204 | 4.0 | 12.0 | 0.01 | 0.35 | 0.35 | 99 | 1003.0 |
| 20260507002503 | 54 | 201 | 4.0 | 12.0 | 0.01 | 0.35 | 0.35 | 99 | 1003.0 |
| 20260507002002 | 54 | 181 | 2.0 | 12.0 | 0.01 | 0.35 | 0.35 | 99 | 1003.0 |
| 20260507001503 | 54 | 187 | 3.0 | 10.0 | 0.01 | 0.35 | 0.35 | 99 | 1003.0 |
| 20260507000503 | 54 | 185 | 2.0 | 9.0 | 0.01 | 0.35 | 0.35 | 99 | 1003.0 |
| 20260507000003 | 54 | 187 | 3.0 | 7.0 | 0.00 | 0.34 | 0.34 | 98 | 1003.0 |
| 20260506235503 | 54 | 178 | 3.0 | 12.0 | 0.00 | 0.34 | 0.34 | 98 | 1003.0 |
| 20260506235003 | 54 | 180 | 3.0 | 10.0 | 0.00 | 0.34 | 0.34 | 98 | 1003.1 |
| 20260506234002 | 54 | 199 | 2.0 | 12.0 | 0.00 | 0.34 | 0.34 | 98 | 1003.2 |
| 20260506233503 | 54 | 207 | 4.0 | 9.0 | 0.00 | 0.35 | 0.34 | 99 | 1003.2 |
| 20260506233002 | 54 | 203 | 3.0 | 12.0 | 0.00 | 0.35 | 0.34 | 99 | 1003.2 |
| 20260506232502 | 54 | 219 | 3.0 | 8.0 | 0.00 | 0.35 | 0.34 | 99 | 1003.3 |
| 20260506232003 | 54 | 182 | 5.0 | 9.0 | 0.00 | 0.36 | 0.34 | 99 | 1003.3 |
| 20260506231503 | 54 | 183 | 4.0 | 10.0 | 0.01 | 0.36 | 0.34 | 99 | 1003.2 |
| 20260506231003 | 54 | 192 | 4.0 | 12.0 | 0.01 | 0.36 | 0.34 | 98 | 1003.4 |
| 20260506230003 | 55 | 210 | 4.0 | 10.0 | 0.01 | 0.36 | 0.34 | 98 | 1003.4 |
| 20260506225503 | 55 | 193 | 2.0 | 8.0 | 0.02 | 0.36 | 0.34 | 98 | 1003.4 |
| 20260506224502 | 55 | 191 | 2.0 | 12.0 | 0.02 | 0.36 | 0.34 | 99 | 1003.5 |
| 20260506223502 | 55 | 189 | 5.0 | 12.0 | 0.03 | 0.36 | 0.34 | 99 | 1003.6 |
| 20260506223003 | 55 | 193 | 3.0 | 10.0 | 0.03 | 0.37 | 0.34 | 99 | 1003.7 |
| 20260506222502 | 55 | 186 | 4.0 | 14.0 | 0.03 | 0.37 | 0.34 | 99 | 1003.7 |
| 20260506222003 | 55 | 199 | 3.0 | 12.0 | 0.04 | 0.37 | 0.34 | 99 | 1003.7 |
| 20260506221504 | 55 | 199 | 4.0 | 16.0 | 0.03 | 0.36 | 0.33 | 99 | 1003.8 |
| 20260506220503 | 55 | 191 | 6.0 | 12.0 | 0.05 | 0.36 | 0.33 | 99 | 1003.9 |
| 20260506215503 | 55 | 208 | 3.0 | 9.0 | 0.05 | 0.35 | 0.32 | 98 | 1003.9 |
| 20260506215003 | 55 | 199 | 5.0 | 12.0 | 0.05 | 0.35 | 0.32 | 98 | 1004.0 |
| 20260506214503 | 55 | 191 | 5.0 | 12.0 | 0.06 | 0.35 | 0.32 | 98 | 1003.9 |
| 20260506213503 | 55 | 193 | 3.0 | 12.0 | 0.05 | 0.34 | 0.31 | 98 | 1003.9 |
| 20260506213003 | 55 | 185 | 4.0 | 16.0 | 0.05 | 0.34 | 0.31 | 98 | 1003.9 |
| 20260506212003 | 55 | 166 | 6.0 | 16.0 | 0.05 | 0.33 | 0.30 | 98 | 1003.9 |
| 20260506211502 | 55 | 214 | 4.0 | 12.0 | 0.05 | 0.33 | 0.30 | 98 | 1003.8 |
| 20260506211003 | 55 | 196 | 4.0 | 13.0 | 0.04 | 0.32 | 0.29 | 98 | 1003.7 |
| 20260506210504 | 55 | 190 | 3.0 | 10.0 | 0.03 | 0.31 | 0.28 | 98 | 1003.6 |
| 20260506210003 | 55 | 190 | 3.0 | 14.0 | 0.04 | 0.31 | 0.28 | 98 | 1003.7 |
| 20260506205003 | 55 | 183 | 5.0 | 12.0 | 0.04 | 0.30 | 0.27 | 98 | 1003.8 |
| 20260506204503 | 55 | 153 | 5.0 | 12.0 | 0.04 | 0.29 | 0.26 | 98 | 1003.9 |
| 20260506204003 | 55 | 180 | 4.0 | 9.0 | 0.04 | 0.29 | 0.26 | 98 | 1004.0 |
| 20260506203003 | 55 | 174 | 5.0 | 10.0 | 0.06 | 0.29 | 0.26 | 98 | 1004.0 |
| 20260506202503 | 55 | 170 | 2.0 | 12.0 | 0.07 | 0.28 | 0.25 | 98 | 1004.1 |
| 20260506202003 | 55 | 183 | 3.0 | 10.0 | 0.08 | 0.28 | 0.25 | 98 | 1004.2 |
| 20260506201503 | 55 | 173 | 1.0 | 7.0 | 0.09 | 0.28 | 0.25 | 98 | 1004.3 |
| 20260506201003 | 55 | 186 | 2.0 | 7.0 | 0.12 | 0.28 | 0.25 | 98 | 1004.3 |
| 20260506200503 | 55 | 212 | 1.0 | 7.0 | 0.13 | 0.28 | 0.25 | 98 | 1004.5 |
| 20260506195503 | 55 | 217 | 1.0 | 6.0 | 0.14 | 0.26 | 0.23 | 98 | 1004.7 |
| 20260506195003 | 56 | 208 | 3.0 | 9.0 | 0.16 | 0.26 | 0.23 | 97 | 1004.6 |
| 20260506194503 | 56 | 205 | 4.0 | 13.0 | 0.16 | 0.25 | 0.22 | 97 | 1004.5 |
| 20260506193503 | 56 | 198 | 1.0 | 5.0 | 0.16 | 0.24 | 0.21 | 97 | 1004.5 |
| 20260506193003 | 56 | 171 | 2.0 | 8.0 | 0.16 | 0.23 | 0.20 | 97 | 1004.5 |
| 20260506192003 | 56 | 166 | 1.0 | 7.0 | 0.14 | 0.20 | 0.17 | 97 | 1004.7 |
| 20260506191004 | 56 | 191 | 2.0 | 7.0 | 0.11 | 0.16 | 0.13 | 97 | 1005.1 |
| 20260506190503 | 56 | 211 | 2.0 | 7.0 | 0.10 | 0.15 | 0.12 | 97 | 1004.9 |
| 20260506190003 | 56 | 190 | 2.0 | 9.0 | 0.08 | 0.13 | 0.10 | 97 | 1004.8 |
| 20260506185503 | 56 | 167 | 2.0 | 8.0 | 0.07 | 0.12 | 0.09 | 96 | 1004.7 |
| 20260506184503 | 56 | 162 | 2.0 | 9.0 | 0.05 | 0.09 | 0.06 | 96 | 1004.7 |
| 20260506184004 | 56 | 169 | 2.0 | 9.0 | 0.04 | 0.08 | 0.05 | 96 | 1004.8 |
| 20260506183503 | 57 | 173 | 2.0 | 10.0 | 0.04 | 0.08 | 0.05 | 96 | 1004.9 |
| 20260506183003 | 57 | 167 | 2.0 | 6.0 | 0.03 | 0.07 | 0.04 | 95 | 1004.8 |
| 20260506182004 | 57 | 152 | 1.0 | 10.0 | 0.02 | 0.06 | 0.03 | 95 | 1004.9 |
| 20260506181003 | 57 | 170 | 1.0 | 7.0 | 0.01 | 0.05 | 0.02 | 94 | 1005.1 |
| 20260506180503 | 57 | 187 | 1.0 | 5.0 | 0.01 | 0.05 | 0.02 | 94 | 1005.1 |
| 20260506180004 | 57 | 146 | 1.0 | 6.0 | 0.01 | 0.05 | 0.02 | 93 | 1005.1 |
| 20260506175503 | 57 | 185 | 2.0 | 6.0 | 0.01 | 0.05 | 0.02 | 93 | 1005.2 |
| 20260506175004 | 57 | 147 | 3.0 | 8.0 | 0.01 | 0.05 | 0.02 | 92 | 1005.3 |
| 20260506174003 | 58 | 172 | 2.0 | 9.0 | 0.00 | 0.04 | 0.01 | 92 | 1005.6 |
| 20260506173503 | 58 | 183 | 1.0 | 7.0 | 0.00 | 0.04 | 0.01 | 92 | 1005.5 |
| 20260506173003 | 58 | 176 | 1.0 | 10.0 | 0.00 | 0.04 | 0.01 | 93 | 1005.6 |
| 20260506172503 | 58 | 207 | 1.0 | 6.0 | 0.00 | 0.04 | 0.01 | 93 | 1005.8 |
| 20260506172003 | 58 | 172 | 2.0 | 12.0 | 0.00 | 0.04 | 0.01 | 93 | 1006.0 |
| 20260506171503 | 58 | 187 | 0.0 | 7.0 | 0.01 | 0.04 | 0.01 | 93 | 1006.0 |
| 20260506171003 | 58 | 225 | 2.0 | 7.0 | 0.01 | 0.04 | 0.01 | 94 | 1006.0 |
| 20260506170503 | 58 | 147 | 1.0 | 6.0 | 0.01 | 0.04 | 0.01 | 94 | 1006.0 |
| 20260506170004 | 58 | 175 | 0.0 | 1.0 | 0.01 | 0.04 | 0.01 | 94 | 1006.1 |
| 20260506165503 | 58 | 175 | 0.0 | 0.0 | 0.01 | 0.04 | 0.01 | 94 | 1006.1 |
| 20260506165004 | 58 | 177 | 1.0 | 3.0 | 0.01 | 0.04 | 0.01 | 94 | 1006.2 |
| 20260506164503 | 58 | 186 | 0.0 | 0.0 | 0.01 | 0.04 | 0.01 | 94 | 1006.5 |
| 20260506164003 | 58 | 186 | 0.0 | 0.0 | 0.01 | 0.04 | 0.01 | 93 | 1006.6 |
| 20260506163003 | 58 | 186 | 0.0 | 0.0 | 0.01 | 0.04 | 0.01 | 91 | 1006.7 |
| 20260506162503 | 58 | 186 | 0.0 | 0.0 | 0.01 | 0.04 | 0.01 | 90 | 1006.8 |
| 20260506162003 | 59 | 186 | 0.0 | 0.0 | 0.01 | 0.04 | 0.01 | 88 | 1007.2 |
| 20260506161503 | 59 | 186 | 0.0 | 0.0 | 0.00 | 0.03 | 0.00 | 85 | 1007.2 |
| 20260506161004 | 59 | 186 | 0.0 | 0.0 | 0.00 | 0.03 | 0.00 | 85 | 1007.5 |
| 20260506160503 | 59 | 186 | 0.0 | 0.0 | 0.00 | 0.03 | 0.00 | 84 | 1007.4 |
| 20260506160003 | 59 | 186 | 0.0 | 0.0 | 0.00 | 0.03 | 0.00 | 83 | 1007.2 |
| 20260506155504 | 59 | 186 | 0.0 | 1.0 | 0.00 | 0.03 | 0.00 | 83 | 1007.3 |
| 20260506155003 | 59 | 186 | 0.0 | 0.0 | 0.00 | 0.03 | 0.00 | 82 | 1007.5 |
| 20260506154503 | 59 | 186 | 1.0 | 7.0 | 0.00 | 0.03 | 0.00 | 83 | 1007.5 |
| 20260506154004 | 60 | 183 | 0.0 | 0.0 | 0.00 | 0.03 | 0.00 | 83 | 1007.4 |
| 20260506152503 | 60 | 171 | 0.0 | 0.0 | 0.00 | 0.03 | 0.00 | 81 | 1007.2 |
| 20260506152003 | 60 | 171 | 0.0 | 1.0 | 0.00 | 0.03 | 0.00 | 82 | 1007.3 |
| 20260506151503 | 60 | 168 | 0.0 | 2.0 | 0.00 | 0.03 | 0.00 | 81 | 1007.1 |
| 20260506151004 | 60 | 157 | 1.0 | 7.0 | 0.00 | 0.03 | 0.00 | 81 | 1007.2 |
| 20260506150503 | 60 | 153 | 1.0 | 6.0 | 0.00 | 0.03 | 0.00 | 83 | 1007.1 |
| 20260506150004 | 60 | 163 | 1.0 | 5.0 | 0.00 | 0.03 | 0.00 | 82 | 1007.1 |
| 20260506145503 | 59 | 197 | 0.0 | 3.0 | 0.00 | 0.03 | 0.00 | 83 | 1007.1 |
| 20260506145004 | 59 | 198 | 0.0 | 5.0 | 0.00 | 0.03 | 0.00 | 82 | 1007.0 |
| 20260506144005 | 59 | 201 | 0.0 | 6.0 | 0.00 | 0.03 | 0.00 | 82 | 1007.1 |
| 20260506143504 | 58 | 203 | 0.0 | 3.0 | 0.00 | 0.03 | 0.00 | 83 | 1007.3 |
| 20260506143003 | 58 | 181 | 0.0 | 0.0 | 0.00 | 0.03 | 0.00 | 83 | 1007.3 |
| 20260506142003 | 58 | 181 | 0.0 | 0.0 | 0.00 | 0.03 | 0.00 | 83 | 1007.6 |
| 20260506141004 | 58 | 181 | 0.0 | 3.0 | 0.00 | 0.03 | 0.00 | 84 | 1007.7 |
| 20260506140503 | 58 | 181 | 0.0 | 3.0 | 0.00 | 0.03 | 0.00 | 84 | 1007.7 |
| 20260506140004 | 58 | 181 | 0.0 | 0.0 | 0.00 | 0.03 | 0.00 | 83 | 1007.6 |
| 20260506135004 | 57 | 181 | 0.0 | 0.0 | 0.00 | 0.03 | 0.00 | 84 | 1007.6 |
| 20260506134503 | 57 | 181 | 0.0 | 0.0 | 0.00 | 0.03 | 0.00 | 83 | 1007.5 |
| 20260506134003 | 57 | 181 | 0.0 | 0.0 | 0.00 | 0.03 | 0.00 | 84 | 1007.5 |
| 20260506133503 | 57 | 181 | 0.0 | 0.0 | 0.00 | 0.03 | 0.00 | 84 | 1007.4 |
| 20260506131503 | 57 | 181 | 0.0 | 0.0 | 0.00 | 0.03 | 0.00 | 85 | 1007.6 |
| 20260506131004 | 57 | 181 | 0.0 | 0.0 | 0.00 | 0.03 | 0.00 | 86 | 1007.5 |
| 20260506130503 | 56 | 181 | 0.0 | 0.0 | 0.00 | 0.03 | 0.00 | 85 | 1007.6 |
| 20260506130005 | 56 | 181 | 0.0 | 0.0 | 0.00 | 0.03 | 0.00 | 86 | 1007.7 |
| 20260506125503 | 56 | 181 | 0.0 | 0.0 | 0.00 | 0.03 | 0.00 | 85 | 1007.8 |
| 20260506123504 | 56 | 196 | 0.0 | 3.0 | 0.00 | 0.03 | 0.00 | 85 | 1008.0 |
| 20260506123004 | 56 | 196 | 0.0 | 0.0 | 0.00 | 0.03 | 0.00 | 88 | 1008.2 |
| 20260506122503 | 56 | 196 | 1.0 | 6.0 | 0.00 | 0.03 | 0.00 | 88 | 1008.1 |
| 20260506122004 | 56 | 202 | 0.0 | 0.0 | 0.00 | 0.03 | 0.00 | 87 | 1008.4 |
| 20260506121504 | 56 | 202 | 0.0 | 0.0 | 0.00 | 0.03 | 0.00 | 89 | 1008.3 |
| 20260506121003 | 56 | 189 | 0.0 | 0.0 | 0.00 | 0.03 | 0.00 | 89 | 1008.3 |
| 20260506120504 | 56 | 189 | 0.0 | 0.0 | 0.00 | 0.03 | 0.00 | 89 | 1008.4 |
| 20260506120004 | 55 | 189 | 0.0 | 0.0 | 0.00 | 0.03 | 0.00 | 89 | 1008.4 |
| 20260506115504 | 55 | 189 | 0.0 | 0.0 | 0.00 | 0.03 | 0.00 | 89 | 1008.3 |
| 20260506114503 | 55 | 189 | 0.0 | 0.0 | 0.00 | 0.03 | 0.00 | 90 | 1008.2 |
| 20260506114003 | 55 | 189 | 0.0 | 0.0 | 0.00 | 0.03 | 0.00 | 91 | 1008.2 |
| 20260506113504 | 55 | 189 | 0.0 | 3.0 | 0.00 | 0.03 | 0.00 | 92 | 1008.4 |
| 20260506113003 | 54 | 189 | 0.0 | 0.0 | 0.00 | 0.03 | 0.00 | 93 | 1008.3 |
| 20260506112503 | 54 | 189 | 0.0 | 0.0 | 0.00 | 0.03 | 0.00 | 93 | 1008.3 |
| 20260506111504 | 54 | 189 | 0.0 | 0.0 | 0.00 | 0.03 | 0.00 | 94 | 1008.3 |
| 20260506111004 | 53 | 189 | 0.0 | 0.0 | 0.00 | 0.03 | 0.00 | 95 | 1008.3 |
| 20260506110004 | 53 | 189 | 0.0 | 0.0 | 0.00 | 0.03 | 0.00 | 95 | 1008.5 |
| 20260506105504 | 53 | 189 | 0.0 | 0.0 | 0.00 | 0.03 | 0.00 | 96 | 1008.6 |
| 20260506105004 | 53 | 189 | 0.0 | 0.0 | 0.00 | 0.03 | 0.00 | 96 | 1008.5 |
| 20260506104003 | 53 | 189 | 0.0 | 0.0 | 0.00 | 0.03 | 0.00 | 97 | 1008.5 |
| 20260506103504 | 52 | 189 | 0.0 | 0.0 | 0.00 | 0.03 | 0.00 | 97 | 1008.4 |
| 20260506103003 | 52 | 190 | 0.0 | 0.0 | 0.00 | 0.03 | 0.00 | 97 | 1008.4 |
| 20260506102503 | 52 | 190 | 0.0 | 0.0 | 0.00 | 0.03 | 0.00 | 96 | 1008.5 |
| 20260506102004 | 52 | 190 | 0.0 | 0.0 | 0.00 | 0.03 | 0.00 | 96 | 1008.4 |
| 20260506101504 | 51 | 190 | 0.0 | 0.0 | 0.00 | 0.03 | 0.00 | 96 | 1008.3 |
| 20260506100504 | 51 | 190 | 0.0 | 0.0 | 0.00 | 0.03 | 0.00 | 96 | 1008.5 |
| 20260506100004 | 51 | 190 | 0.0 | 0.0 | 0.00 | 0.03 | 0.00 | 96 | 1008.5 |
| 20260506095504 | 51 | 190 | 0.0 | 0.0 | 0.00 | 0.03 | 0.00 | 96 | 1008.3 |
| 20260506095003 | 51 | 190 | 0.0 | 0.0 | 0.00 | 0.03 | 0.00 | 96 | 1008.2 |
| 20260506094504 | 51 | 190 | 0.0 | 0.0 | 0.00 | 0.03 | 0.00 | 95 | 1008.1 |
| 20260506094003 | 51 | 190 | 0.0 | 0.0 | 0.00 | 0.03 | 0.00 | 96 | 1007.9 |
| 20260506093504 | 52 | 190 | 0.0 | 0.0 | 0.00 | 0.03 | 0.00 | 95 | 1007.8 |
| 20260506093004 | 52 | 190 | 0.0 | 0.0 | 0.00 | 0.03 | 0.00 | 95 | 1007.8 |
| 20260506092504 | 52 | 190 | 0.0 | 0.0 | 0.00 | 0.03 | 0.00 | 95 | 1007.9 |
| 20260506092004 | 52 | 190 | 0.0 | 0.0 | 0.00 | 0.03 | 0.00 | 95 | 1007.9 |
| 20260506091504 | 52 | 190 | 0.0 | 0.0 | 0.00 | 0.03 | 0.00 | 95 | 1007.9 |
| 20260506090504 | 53 | 190 | 0.0 | 0.0 | 0.00 | 0.03 | 0.00 | 95 | 1007.7 |
| 20260506090004 | 53 | 190 | 0.0 | 0.0 | 0.00 | 0.03 | 0.00 | 95 | 1007.7 |
| 20260506085504 | 53 | 190 | 0.0 | 0.0 | 0.00 | 0.03 | 0.00 | 95 | 1007.6 |
| 20260506085004 | 53 | 190 | 0.0 | 0.0 | 0.00 | 0.03 | 0.00 | 95 | 1007.5 |
| 20260506084504 | 53 | 190 | 0.0 | 0.0 | 0.00 | 0.03 | 0.00 | 95 | 1007.7 |
| 20260506084004 | 53 | 190 | 0.0 | 0.0 | 0.00 | 0.03 | 0.00 | 96 | 1007.9 |
| 20260506083504 | 53 | 190 | 0.0 | 0.0 | 0.00 | 0.03 | 0.00 | 96 | 1008.1 |
| 20260506083004 | 53 | 190 | 0.0 | 0.0 | 0.00 | 0.03 | 0.00 | 96 | 1008.1 |
| 20260506082504 | 53 | 190 | 0.0 | 0.0 | 0.00 | 0.03 | 0.00 | 96 | 1008.2 |
| 20260506082004 | 53 | 190 | 0.0 | 0.0 | 0.00 | 0.03 | 0.00 | 96 | 1008.1 |